Regional Weather Roundup
Issued by NWS

Home | Current Version | Previous Version | Text Only | Print | Product List | Glossary Off
Versions: 1 2 3 4 5 6 7 8 9 10 11 12 13 14 15 16 17 18 19 20 21 22 23 24 25 26 27 28 29 30 31 32 33 34 35 36 37 38 39 40 41 42 43 44 45 46 47 48 49 50

000
ASUS43 KLSX 031807
RWRMO

WEATHER SUMMARY FOR MISSOURI
NATIONAL WEATHER SERVICE SPRINGFIELD MO
100 PM CDT WED JUN 03 2015

NOTE: "FAIR" INDICATES FEW OR NO CLOUDS BELOW 12,000 FEET WITH NO
       SIGNIFICANT WEATHER AND/OR OBSTRUCTIONS TO VISIBILITY.
       CURRENT SKY AND/OR WEATHER CONDITIONS ARE NOT AVAILABLE FOR
       CHILLICOTHE AND FARMINGTON.

MOZ001>031-035>038-043-044-053-054-031900-
...NORTHERN AND WESTERN MISSOURI...

CITY           SKY/WX    TMP DP  RH WIND       PRES   REMARKS
KANSAS CTY INT LGT RAIN  66  65  96 SE23G31   29.89F
6HR MIN TEMP:  63; 6HR MAX TEMP:  67; 6HR PCP:  2.17;

KANSAS C DTWN  LGT RAIN  66  62  87 E17G23    29.90F
6HR MIN TEMP:  65; 6HR MAX TEMP:  70; 6HR PCP:  0.89;

LEE`S SUMMIT   TSTM      64  63  96 E14       29.99F FOG
6HR MIN TEMP:  63; 6HR MAX TEMP:  67; 6HR PCP:  1.42;

ST JOSEPH      TSTM      67  64  90 SE25G32   29.82F
6HR MIN TEMP:  63; 6HR MAX TEMP:  67; 6HR PCP:  0.47;

CHILLICOTHE      N/A     64  63  96 SE9       29.95F
6HR MIN TEMP:  62; 6HR MAX TEMP:  64; 6HR PCP:  0.41;

KIRKSVILLE     CLOUDY    65  63  93 S8        29.99F
6HR MIN TEMP:  58; 6HR MAX TEMP:  66; 6HR PCP:  0.30;


$$
MOZ066>068-077>081-088>096-101>105-031900-
...SOUTHWEST MISSOURI...

CITY           SKY/WX    TMP DP  RH WIND       PRES   REMARKS
SPRINGFIELD    FAIR      76  66  71 VRB6      30.01S
6HR MIN TEMP:  61; 6HR MAX TEMP:  76;

JOPLIN         FAIR      82  68  62 S10       29.98S
6HR MIN TEMP:  67; 6HR MAX TEMP:  82;


$$
MOZ032>034-039>042-045>050-055>058-069>072-031900-
...CENTRAL MISSOURI...

CITY           SKY/WX    TMP DP  RH WIND       PRES   REMARKS
COLUMBIA       LGT RAIN  65  63  93 CALM      30.04S
6HR MIN TEMP:  58; 6HR MAX TEMP:  70; 6HR PCP:  0.13;

JEFFERSON CITY CLOUDY    67  63  87 SE3       30.04R
6HR MIN TEMP:  58; 6HR MAX TEMP:  70; 6HR PCP:  0.05;

ROLLA          PTSUNNY   70  63  78 VRB7      30.03S
6HR MIN TEMP:  56; 6HR MAX TEMP:  70;

SEDALIA        RAIN      65  63  93 E6        30.04S FOG
6HR MIN TEMP:  62; 6HR MAX TEMP:  68; 6HR PCP:  0.08;

WHITEMAN AFB   TSTM      63  63  99 E6        30.03R VSB 1
WARRENSBURG    TSTM      63  61  94 NW17      30.08R
OSAGE BEACH    CLOUDY    72  63  73 CALM      30.03R

$$
MOZ051-052-059>065-031900-
...EAST CENTRAL MISSOURI...

CITY           SKY/WX    TMP DP  RH WIND       PRES   REMARKS
ST LOUIS INTL  PTSUNNY   71  57  61 VRB6      30.05S
6HR MIN TEMP:  63; 6HR MAX TEMP:  72;

SPIRIT OF STL  PTSUNNY   69  61  75 S7        30.03F
6HR MIN TEMP:  61; 6HR MAX TEMP:  69;

ST CHARLES     FAIR      72  60  66 S8        30.03F
6HR MIN TEMP:  59; 6HR MAX TEMP:  72;


$$
MOZ072>076-082>087-097>100-106>115-031900-
...SOUTH CENTRAL AND SOUTHEAST MISSOURI...

CITY           SKY/WX    TMP DP  RH WIND       PRES   REMARKS
CAPE GIRARDEAU CLOUDY    72  59  63 VRB5      30.05S
6HR MIN TEMP:  63; 6HR MAX TEMP:  74;

FARMINGTON     CLOUDY    68  57  68 S3        30.09F
6HR MIN TEMP:  59; 6HR MAX TEMP:  68;

POPLAR BLUFF   CLOUDY    70  58  65 VRB3      30.04S
6HR MIN TEMP:  59; 6HR MAX TEMP:  71;

WEST PLAINS    CLOUDY    67  60  78 SE5       30.06F
6HR MIN TEMP:  58; 6HR MAX TEMP:  67;


$$


USA.gov is the U.S. government's official web portal to all federal, state and local government web resources and services.